Weather History for Anchorage Merrill, AK

Change the Weather History Date:

Tuesday, April 8, 2014

  Actual Average Record
Temperature  
Mean Temperature 26 °F -  
Max Temperature 30 °F 40 °F 51 °F (1997)
Min Temperature 21 °F 24 °F 10 °F (2013)
Degree Days  
Heating Degree Days 40    
Moisture  
Dew Point 10 °F    
Average Humidity 53    
Maximum Humidity 81    
Minimum Humidity 30    
Precipitation  
Precipitation 0.02 in - - ()
Snow  
Snow 0.00 in - - ()
Snow Depth 4.00 in    
Sea Level Pressure  
Sea Level Pressure 29.45 in    
Wind  
Wind Speed 8 mph (North)    
Max Wind Speed 15 mph    
Max Gust Speed 20 mph    
Visibility 8 miles    
Events Snow    
Averages and records for this station are not official NWS values.
T = Trace of Precipitation, MM = Missing Value Source: NWS Daily Summary

Daily Weather History Graph

Daily Weather History Graph

Search for Another Location

Airport:

Trip Planner

Search our weather history database for the weather conditions in past years. The results will help you decide how hot, cold, wet, or windy it might be!

Date:

Astronomy

Apr. 08, 2014 Rise Set
Actual Time 6:59 AM AKDT 9:04 PM AKDT
Civil Twilight 6:13 AM AKDT 9:50 PM AKDT
Nautical Twilight 5:13 AM AKDT 10:51 PM AKDT
Astronomical Twilight 3:54 AM AKDT 12:12 AM AKDT
Moon 1:33 PM AKDT (4/8) 4:55 AM AKDT (4/8)
Length of Visible Light 15h 37m
Length of Day
14h 04m
Waxing Gibbous, 64% of the Moon is Illuminated
Apr 8
Waxing Gibbous
Apr 14
Full
Apr 21
Last Quarter
Apr 28
New
May 6
First Quarter

Hourly Weather History & Observations

Time (AKDT) Temp. Windchill Dew Point Humidity Pressure Visibility Wind Dir Wind Speed Gust Speed Precip Events Conditions
12:53 AM 28.9 °F 17.7 °F 12.9 °F 51% 29.31 in 5.0 mi North 15.0 mph 19.6 mph 0.00 in Snow Light Snow
1:53 AM 27.0 °F 18.0 °F 16.0 °F 63% 29.33 in 5.0 mi North 9.2 mph - 0.00 in Snow Light Snow
2:28 AM 24.8 °F 14.6 °F 19.4 °F 80% 29.33 in 2.0 mi North 10.4 mph - 0.00 in Snow Light Snow
2:35 AM 24.8 °F 16.1 °F 19.4 °F 80% 29.33 in 1.5 mi NNW 8.1 mph - 0.00 in Snow Light Snow
2:53 AM 25.0 °F 17.1 °F 19.9 °F 81% 29.34 in 1.5 mi North 6.9 mph - 0.01 in Snow Light Snow
3:53 AM 24.1 °F 16.0 °F 12.9 °F 62% 29.35 in 2.0 mi NNW 6.9 mph - 0.01 in Snow Light Snow
4:13 AM 24.8 °F 15.3 °F 12.2 °F 59% 29.35 in 3.0 mi NNW 9.2 mph - 0.00 in Snow Light Snow
4:53 AM 24.1 °F 15.2 °F 10.0 °F 55% 29.37 in 5.0 mi North 8.1 mph - 0.00 in Snow Light Snow
5:53 AM 23.0 °F 13.1 °F 10.9 °F 60% 29.38 in 5.0 mi North 9.2 mph - 0.00 in Snow Light Snow
6:53 AM 23.0 °F 17.0 °F 12.9 °F 65% 29.39 in 9.0 mi NNE 4.6 mph - 0.00 in   Overcast
7:53 AM 21.9 °F 15.7 °F 12.9 °F 68% 29.40 in 10.0 mi ENE 4.6 mph - N/A   Overcast
8:53 AM 23.0 °F 15.8 °F 3.9 °F 44% 29.42 in 10.0 mi North 5.8 mph - N/A   Overcast
9:53 AM 23.0 °F 15.8 °F 3.9 °F 44% 29.44 in 10.0 mi North 5.8 mph - N/A   Overcast
10:53 AM 23.0 °F 13.1 °F 7.0 °F 50% 29.45 in 8.0 mi NE 9.2 mph - 0.00 in Snow Light Snow
11:53 AM 21.9 °F 12.5 °F 14.0 °F 72% 29.47 in 8.0 mi ENE 8.1 mph - 0.00 in Snow Light Snow
12:53 PM 23.0 °F 13.9 °F 14.0 °F 68% 29.49 in 6.0 mi NE 8.1 mph - 0.00 in   Overcast
1:53 PM 24.1 °F 15.2 °F 14.0 °F 65% 29.49 in 10.0 mi NE 8.1 mph - N/A   Mostly Cloudy
2:53 PM 27.0 °F - 12.9 °F 56% 29.49 in 10.0 mi North - - N/A   Overcast
3:53 PM 28.0 °F 22.8 °F 12.0 °F 51% 29.50 in 10.0 mi NNE 4.6 mph - N/A   Overcast
4:53 PM 28.9 °F 23.9 °F 10.0 °F 45% 29.50 in 10.0 mi North 4.6 mph - N/A   Overcast
5:53 PM 30.0 °F - 10.9 °F 45% 29.51 in 10.0 mi Calm Calm - N/A   Overcast
6:53 PM 30.0 °F - 8.1 °F 40% 29.52 in 10.0 mi Calm Calm - N/A   Overcast
6:54 PM 30.2 °F - 8.6 °F 40% 29.52 in 10.0 mi North - - N/A   Overcast
6:56 PM 30.2 °F - 8.6 °F 40% 29.52 in 10.0 mi Calm Calm - N/A   Overcast
7:53 PM 30.0 °F 26.5 °F 6.1 °F 36% 29.54 in 10.0 mi NW 3.5 mph - N/A   Mostly Cloudy
8:53 PM 28.9 °F - 5.0 °F 36% 29.55 in 10.0 mi North - - N/A   Overcast
9:53 PM 28.0 °F 19.3 °F -0.0 °F 30% 29.57 in 10.0 mi NW 9.2 mph 17.3 mph N/A   Mostly Cloudy
10:53 PM 27.0 °F 18.7 °F -0.9 °F 30% 29.60 in 10.0 mi NW 8.1 mph - N/A   Mostly Cloudy
11:53 PM 25.0 °F 16.3 °F -2.0 °F 31% 29.62 in 10.0 mi North 8.1 mph - N/A   Scattered Clouds